Погода в Федоровке

Россия / Тамбовская область     53°26′00″N   40°57′57″E
темп.,
°C
ветер,
м/с
пор.,
м/с
влажн.,
%
обл.,
%
осадки,
мм/ч
давл.,
гПа
погр.,
м
26 июня, вс
вс2600:00+17св338048 0.0 101830
03:00+16ссв34810 0.0 101943
06:00+18ссв38852 0.0 1019223
09:00+23ссв466753 0.0 1020474
12:00+24ссв576974 0.5 1020608
15:00+26св58560 0.5 10201860
18:00+24ссв36690 0.2 1020453
21:00+20всв22791 0.2 102115
27 июня, пн
пн2700:00+17ююв22833 0.0 102225
03:00+15ю33850 0.0 102228
06:00+17ююз35820 0.0 1022138
09:00+22юз45670 0.0 1022445
12:00+25з45640 0.0 1021867
15:00+27зсз45635 0.3 10191316
18:00+27з47730 0.6 1017352
21:00+23зсз37830 1.1 1017137
28 июня, вт
вт2800:00+21с47850 0.9 1017106
03:00+18с35880 0.9 101873
06:00+19ссв37900 0.0 1018193
09:00+21св686915 0.0 1019539
12:00+23св67551 0.0 1019997
15:00+22св67515 0.0 10201249
18:00+20св47600 0.0 1020496
21:00+16св33680 0.0 102029
29 июня, ср
ср2900:00+13в36780 0.0 102297
03:00+11в11856 0.0 102211
06:00+13св23805 0.0 1023109
09:00+18св34565 0.0 1023610
12:00+20св34470 0.0 10221750
15:00+21ссв33440 0.0 10211919
18:00+20св23560 0.0 10211226
21:00+14всв22650 0.0 102110
30 июня, чт
чт3000:00+12ссв11660 0.0 102110
03:00+11с22700 0.0 102110
06:00+13ссз23736 0.0 1021102
09:00+18ссз335610 0.0 1021542
12:00+21ссз454831 0.0 10201513
15:00+22ссз5746100 0.0 10191781
18:00+21сз4759100 0.0 1018393
21:00+16сз48785 0.0 1018126